EW5523 Weather Reports


Display with metric or nautical units.
time (UTC)temp
F
wind
direction
speed
MPH
gust
MPH
rain 1hr
in
rain 24hr
in
rain mn
in
humidity
%
barometer
mb
20181115193047 27 244 1.0 5.0 0.00 0.00 0.00 90 1040.8
20181115191601 27 260 2.0 5.0 0.00 0.00 0.00 90 1040.9
20181115190022 27 237 0.0 6.0 0.00 0.00 0.00 90 1040.9
20181115184528 27 290 0.0 3.0 0.00 0.00 0.00 89 1040.8
20181115183014 27 275 1.0 5.0 0.00 0.00 0.00 89 1040.8
20181115181537 27 247 1.0 4.0 0.00 0.00 0.00 89 1040.6
20181115180025 27 275 0.0 4.0 0.00 0.00 0.00 89 1040.6
20181115174513 27 265 1.0 4.0 0.00 0.00 0.00 88 1040.8
20181115173021 27 280 1.0 5.0 0.00 0.00 0.00 88 1040.7
20181115171528 27 256 0.0 3.0 0.00 0.00 0.00 88 1040.8
20181115170020 27 285 1.0 4.0 0.00 0.00 0.00 88 1040.7
20181115164527 27 276 1.0 6.0 0.00 0.00 0.00 88 1040.7
20181115163014 27 285 0.0 4.0 0.00 0.00 0.00 88 1040.7
20181115161512 27 264 0.0 3.0 0.00 0.00 0.00 87 1040.4
20181115160006 27 264 0.0 3.0 0.00 0.00 0.00 87 1040.3
20181115154507 27 259 1.0 3.0 0.00 0.00 0.00 87 1040.2
20181115153008 27 237 0.0 4.0 0.00 0.00 0.00 86 1040.2
20181115151510 27 270 0.0 2.0 0.00 0.00 0.00 85 1040.2
20181115150014 27 271 0.0 3.0 0.00 0.00 0.00 85 1040.2
20181115144505 27 272 0.0 1.0 0.00 0.00 0.00 84 1040.2
20181115143154 27 269 0.0 3.0 0.00 0.00 0.00 84 1040.2
20181115141701 27 290 0.0 3.0 0.00 0.00 0.00 83 1040.2
20181115140126 27 290 1.0 3.0 0.00 0.00 0.00 83 1040.1
20181115134648 27 269 0.0 2.0 0.00 0.00 0.00 82 1040.0
20181115133233 27 267 0.0 2.0 0.00 0.00 0.00 81 1039.9
20181115131643 27 261 0.0 3.0 0.00 0.00 0.00 81 1039.7
20181115130213 27 260 1.0 4.0 0.00 0.00 0.00 80 1039.6
20181115124625 27 223 0.0 5.0 0.00 0.00 0.00 80 1039.5
20181115123136 27 265 0.0 4.0 0.00 0.00 0.00 79 1039.5
20181115121636 27 270 1.0 3.0 0.00 0.00 0.00 79 1039.5
20181115120103 27 327 1.0 6.0 0.00 0.00 0.00 78 1039.3
20181115114657 26 277 1.0 6.0 0.00 0.00 0.00 77 1039.1
20181115113107 26 278 0.0 4.0 0.00 0.00 0.00 75 1039.0
20181115111654 26 254 1.0 7.0 0.00 0.00 0.00 75 1038.8
20181115110131 26 269 2.0 6.0 0.00 0.00 0.00 74 1038.7
20181115104624 26 278 1.0 5.0 0.00 0.00 0.00 73 1038.6
20181115103047 26 271 1.0 5.0 0.00 0.00 0.00 72 1038.5
20181115101634 25 260 1.0 6.0 0.00 0.00 0.00 71 1038.3
20181115100045 25 293 2.0 4.0 0.00 0.00 0.00 69 1038.3
20181115094607 25 197 0.0 4.0 0.00 0.00 0.00 69 1038.1
20181115093111 25 263 1.0 6.0 0.00 0.00 0.00 68 1038.1
20181115091552 25 273 1.0 6.0 0.00 0.00 0.00 68 1038.1
20181115090038 24 185 2.0 7.0 0.00 0.00 0.00 67 1038.2
20181115084541 24 214 2.0 8.0 0.00 0.00 0.00 67 1038.1
20181115083101 24 280 3.0 9.0 0.00 0.00 0.00 66 1037.9
20181115081556 23 299 1.0 7.0 0.00 0.00 0.00 67 1037.8
20181115080024 23 239 1.0 7.0 0.00 0.00 0.00 67 1037.7
20181115074548 23 235 2.0 7.0 0.00 0.00 0.00 68 1037.7
20181115073027 22 285 2.0 5.0 0.00 0.00 0.00 69 1037.7
20181115071601 22 323 1.0 5.0 0.00 0.00 0.00 69 1037.8
20181115070056 22 182 2.0 6.0 0.00 0.00 0.00 69 1037.5
20181115064521 22 271 1.0 5.0 0.00 0.00 0.00 69 1037.5
20181115063038 21 227 2.0 7.0 0.00 0.00 0.00 71 1037.5
20181115061512 19 264 0.0 6.0 0.00 0.00 0.00 74 1037.4
20181115060009 19 275 1.0 5.0 0.00 0.00 0.00 75 1037.3
20181115054512 18 228 1.0 5.0 0.00 0.00 0.00 76 1037.0
20181115053007 18 266 1.0 5.0 0.00 0.00 0.00 76 1036.9
20181115051517 18 252 1.0 6.0 0.00 0.00 0.00 75 1036.9
20181115050002 17 253 1.0 6.0 0.00 0.00 0.00 77 1036.7
20181115044719 16 222 1.0 6.0 0.00 0.00 0.00 79 1036.7
20181115043120 16 226 1.0 4.0 0.00 0.00 0.00 79 1036.6
20181115041706 15 219 2.0 6.0 0.00 0.00 0.00 79 1036.7
20181115040230 15 235 1.0 5.0 0.00 0.00 0.00 80 1036.7
20181115034647 15 228 2.0 6.0 0.00 0.00 0.00 79 1036.5
20181115033122 15 271 1.0 4.0 0.00 0.00 0.00 79 1036.3
20181115031646 16 192 3.0 5.0 0.00 0.00 0.00 79 1036.1
20181115030115 16 224 1.0 5.0 0.00 0.00 0.00 79 1036.1
20181115024638 15 257 0.0 4.0 0.00 0.00 0.00 80 1036.0
20181115023130 15 210 0.0 3.0 0.00 0.00 0.00 80 1035.9
20181115021602 16 229 0.0 4.0 0.00 0.00 0.00 79 1035.8
20181115020057 16 233 0.0 4.0 0.00 0.00 0.00 78 1035.7
20181115014614 16 195 0.0 3.0 0.00 0.00 0.00 77 1035.6
20181115013108 17 224 0.0 2.0 0.00 0.00 0.00 75 1035.6
20181115011533 18 224 0.0 3.0 0.00 0.00 0.00 75 1035.4
20181115010100 18 214 0.0 3.0 0.00 0.00 0.00 74 1035.4
20181115004613 18 238 1.0 5.0 0.00 0.00 0.00 74 1035.3
20181115003038 18 241 1.0 4.0 0.00 0.00 0.00 73 1035.3
20181115001532 18 262 2.0 6.0 0.00 0.00 0.00 73 1035.1
20181115000043 19 263 0.0 5.0 0.00 0.00 0.00 73 1034.9
20181114234553 19 268 0.0 5.0 0.00 0.00 0.00 72 1034.8
20181114233056 19 281 0.0 7.0 0.00 0.00 0.00 72 1034.8
20181114231537 19 261 2.0 7.0 0.00 0.00 0.00 71 1034.8
20181114230030 19 205 2.0 7.0 0.00 0.00 0.00 71 1034.7
20181114224547 20 256 3.0 7.0 0.00 0.00 0.00 71 1034.7
20181114223031 20 247 2.0 8.0 0.00 0.00 0.00 71 1034.8
20181114221529 20 251 3.0 8.0 0.00 0.00 0.00 71 1034.7
20181114220021 20 288 3.0 9.0 0.00 0.00 0.00 71 1034.7
20181114214528 20 258 2.0 8.0 0.00 0.00 0.00 71 1034.6
20181114213026 20 264 2.0 9.0 0.00 0.00 0.00 70 1034.5
20181114211505 20 270 2.0 7.0 0.00 0.00 0.00 70 1034.5
20181114210004 20 268 3.0 8.0 0.00 0.00 0.00 70 1034.5
20181114204730 20 260 3.0 8.0 0.00 0.00 0.00 70 1034.6
20181114203159 21 254 2.0 8.0 0.00 0.00 0.00 69 1034.5
20181114201629 21 242 2.0 10.0 0.00 0.00 0.00 69 1034.4
20181114200222 21 259 2.0 10.0 0.00 0.00 0.00 69 1034.3
20181114194703 21 276 3.0 9.0 0.00 0.00 0.00 69 1034.2